Location: Elaine Barite Prospect
(34.1431°N, 106.7922°W)
Time: 06:59:01
(UTC+00:00)

Meteor 1-20 Rocket - Pass Details

Date: 13 December 2025
Orbit: 818 x 890 km, 81.2° (Epoch: 12 January)

Event Time Altitude Azimuth Distance (km) Brightness Sun altitude
Rises 13:20:00 0° 191° (S) 3,434 7.5 -9.2°
Reaches altitude 10° 13:22:26 10° 192° (SSW) 2,490 6.8 -8.7°
Maximum altitude 13:28:05 76° 278° (W) 877 4.2 -7.6°
Drops below altitude 10° 13:33:39 10° 5° (N) 2,456 6.4 -6.6°
Sets 13:36:04 0° 7° (N) 3,384 7.2 -6.1°
